Current weather by "City, St" or "zip code"  
 

Current Conditions: Ocean City, Ocean City Municipal Airport, MD

Overcast


65.0 F

Last Updated on Oct 29 2020, 9:53 pm EDT
Humidity: 90%
Wind Speed: mph
Barometer 29.54 in
Dewpoint: 62.1 F
Visibility: 8.00 mi
Precip: --
Heat Index: NA
Wind Chill: NA
Current conditions at:

Ocean City, Ocean City Municipal Airport, MD (KOXB)

Lat: 38.31056 Lon: 75.12389

Local Radar Image active severe weather and emergency alerts image image weather storm and storm spotter reports image weather observation monitoring service image
Local
Radar
Active
Alerts
Storm Reports Obs
Monitoring

Sign-up For Email & Text Message Weather Alert Notification Services



Advertise Here

Observation History for Ocean City, Ocean City Municipal Airport, MD


Time Wind
(mph)
Vis
(mi)
Weather Precip (in) Temperature (F) Relative
Humidity
Wind
Chill
(F)
Heat
Index
(F)
Pressure
Air Dwpt altimeter
(in)
sea level
(mb)
Rmks
9:53 pm EDT 8.00 Overcast -- 65.0 62.1 90% NA NA 29.54 1000.2
8:53 pm EDT NW 6.9 10.00 Overcast -- 68.0 64.9 90% NA NA 29.52 999.7
7:53 pm EDT NW 12.7 10.00 Overcast -- 69.0 64.9 87% NA NA 29.51 999.2
6:53 pm EDT W 13.8 G 26.5 10.00 Mostly Cloudy -- 72.0 66.9 84% NA NA 29.43 996.6
5:53 pm EDT W 21.9 G 32.2 10.00 Overcast and Breezy -- 75.0 70.0 84% NA NA 29.34 993.6
4:53 pm EDT SW 20.7 G 36.8 8.00 Overcast and Breezy 00.01 72.0 69.1 91% NA NA 29.32 992.9
3:53 pm EDT S 16.1 G 26.5 2.00 Light Rain Fog/Mist 00.09 71.0 69.1 94% NA NA 29.34 993.6
2:53 pm EDT SE 18.4 G 25.3 2.50 Light Rain Fog/Mist 00.17 68.0 66.9 96% NA NA 29.40 995.4
1:53 pm EDT N 0.0 1.50 Heavy Rain Fog/Mist 00.17 68.0 66.0 93% NA NA 29.58 1001.6
12:53 pm EDT S 5.8 4.00 Rain Fog/Mist 00.08 68.0 66.0 93% NA NA 29.65 1004.1
11:53 am EDT 4.6 10.00 Light Rain 00.01 68.0 66.0 93% NA NA 29.72 1006.2
10:53 am EDT 5.8 9.00 Overcast Trace 68.0 64.9 90% NA NA 29.76 1007.6
9:53 am EDT S 3.5 6.00 Fog/Mist Trace 68.0 66.0 93% NA NA 29.78 1008.5
8:53 am EDT N 0.0 5.00 Light Rain Fog/Mist 00.01 67.0 66.0 97% NA NA 29.81 1009.4
7:53 am EDT SW 4.6 5.00 Fog/Mist -- 68.0 66.0 93% NA NA 29.81 1009.4
6:53 am EDT S 3.5 10.00 Overcast Trace 68.0 66.0 93% NA NA 29.83 1010.2
5:53 am EDT SW 4.6 4.00 Light Rain Fog/Mist 00.18 68.0 66.0 93% NA NA 29.85 1010.8
4:53 am EDT SW 9.2 3.00 Rain Fog/Mist 00.09 68.0 66.0 93% NA NA 29.87 1011.5
3:53 am EDT SW 5.8 3.00 Rain Fog/Mist 00.14 68.0 66.0 93% NA NA 29.89 1012.1
1:53 am EDT W 4.6 10.00 Light Rain 00.01 68.0 66.0 93% NA NA 29.93 1013.6
12:53 am EDT W 5.8 10.00 Overcast Trace 69.0 64.9 87% NA NA 29.95 1014.0
11:53 pm EDT SW 4.6 10.00 Overcast -- 69.0 64.9 87% NA NA 29.97 1014.8
10:53 pm EDT W 4.6 10.00 Overcast -- 68.0 64.9 90% NA NA 29.98 1015.1

Regional Weather Observation


Ocean City, Ocean City Municipal Airport, MD (KOXB)

Overcast
65.0 F

Salisbury, Salisbury-Ocean City Wicomico County Regional Airport, MD (KSBY)

Fog/Mist
61.0 F

Cambridge-Dorchester Airport, MD (KCGE)

Overcast
55.0 F

Easton / Newman Field, MD (KESN)

Fog/Mist
54.0 F

Wallops Flight Facility Airport, VA (KWAL)

Overcast
66.0 F

Dover Air Force Base, DE (KDOV)

Light Rain
53.0 F